�������l�o���
Date,Time,MP-1(��Sv/h),MP-2(��Sv/h),MP-3(��Sv/h),MP-4(��Sv/h),MP-5(��Sv/h),MP-6(��Sv/h),MP-7(��Sv/h),MP-8(��Sv/h),����,����(m/s),���J
2022/04/27,00:00,0.575,0.846,0.546,1.043,0.733,0.350,0.602,0.567,��,8.5,��
2022/04/27,00:10,0.576,0.846,0.545,1.042,0.734,0.350,0.602,0.567,��,6.8,��
2022/04/27,00:20,0.574,0.845,0.547,1.042,0.734,0.350,0.603,0.568,��,7.2,��
2022/04/27,00:30,0.574,0.847,0.546,1.042,0.734,0.349,0.604,0.567,��,6.2,��
2022/04/27,00:40,0.575,0.848,0.545,1.042,0.734,0.349,0.603,0.567,��,5.5,��
2022/04/27,00:50,0.572,0.845,0.544,1.042,0.733,0.349,0.602,0.567,��,4.2,��
2022/04/27,01:00,0.573,0.846,0.548,1.041,0.736,0.349,0.602,0.570,��,4.7,��
2022/04/27,01:10,0.572,0.847,0.546,1.041,0.733,0.351,0.603,0.568,��,6.5,��
2022/04/27,01:20,0.574,0.847,0.545,1.043,0.735,0.351,0.601,0.567,��,8.7,��
2022/04/27,01:30,0.575,0.847,0.547,1.044,0.734,0.351,0.601,0.567,��,9.7,�L
2022/04/27,01:40,0.575,0.847,0.545,1.045,0.733,0.349,0.603,0.568,��,8.2,��
2022/04/27,01:50,0.573,0.847,0.547,1.043,0.732,0.349,0.602,0.567,��,8.1,��
2022/04/27,02:00,0.575,0.847,0.546,1.042,0.733,0.350,0.603,0.568,��,7.3,��
2022/04/27,02:10,0.575,0.847,0.545,1.043,0.731,0.349,0.602,0.566,��쐼,6.7,��
2022/04/27,02:20,0.573,0.849,0.546,1.043,0.732,0.350,0.603,0.566,��쐼,6.5,�L
2022/04/27,02:30,0.575,0.848,0.547,1.042,0.733,0.349,0.601,0.568,��,7.0,�L
2022/04/27,02:40,0.573,0.848,0.546,1.045,0.736,0.349,0.603,0.568,��,9.5,�L
2022/04/27,02:50,0.573,0.848,0.547,1.044,0.734,0.349,0.602,0.567,��,9.9,�L
2022/04/27,03:00,0.573,0.847,0.546,1.043,0.734,0.350,0.602,0.568,��,9.2,�L
2022/04/27,03:10,0.573,0.846,0.546,1.042,0.732,0.350,0.601,0.568,��,10.2,�L
2022/04/27,03:20,0.574,0.848,0.545,1.042,0.734,0.349,0.602,0.566,��,9.9,�L
2022/04/27,03:30,0.574,0.846,0.547,1.043,0.734,0.350,0.602,0.568,��,9.8,��
2022/04/27,03:40,0.575,0.849,0.544,1.044,0.734,0.351,0.601,0.566,��,9.6,��
2022/04/27,03:50,0.574,0.847,0.546,1.042,0.734,0.350,0.603,0.568,��,6.5,��
2022/04/27,04:00,0.575,0.847,0.546,1.043,0.733,0.350,0.604,0.568,��,4.8,��
2022/04/27,04:10,0.574,0.847,0.546,1.042,0.733,0.351,0.602,0.568,��,5.8,��
2022/04/27,04:20,0.574,0.846,0.547,1.044,0.733,0.350,0.602,0.569,��쐼,7.3,��
2022/04/27,04:30,0.575,0.845,0.548,1.043,0.732,0.351,0.603,0.568,��쐼,8.2,��
2022/04/27,04:40,0.576,0.845,0.547,1.042,0.734,0.351,0.602,0.566,��쐼,8.6,��
2022/04/27,04:50,0.576,0.846,0.547,1.045,0.734,0.351,0.603,0.567,�쐼,8.0,��
2022/04/27,05:00,0.575,0.846,0.547,1.041,0.734,0.350,0.601,0.566,��쐼,7.5,��
2022/04/27,05:10,0.574,0.847,0.546,1.042,0.737,0.351,0.602,0.568,��쐼,4.0,��
2022/04/27,05:20,0.577,0.847,0.546,1.041,0.736,0.351,0.603,0.566,��,4.6,�L
2022/04/27,05:30,0.572,0.845,0.545,1.042,0.736,0.350,0.603,0.566,��,3.2,�L
2022/04/27,05:40,0.574,0.846,0.547,1.042,0.736,0.351,0.604,0.566,��,3.5,�L
2022/04/27,05:50,0.576,0.846,0.547,1.043,0.735,0.350,0.603,0.567,��쐼,3.6,�L
2022/04/27,06:00,0.576,0.848,0.547,1.042,0.737,0.350,0.602,0.566,��쐼,3.3,�L
2022/04/27,06:10,0.575,0.846,0.547,1.042,0.738,0.352,0.603,0.566,�쐼,2.5,�L
2022/04/27,06:20,0.575,0.848,0.548,1.042,0.736,0.351,0.603,0.567,��,3.0,�L
2022/04/27,06:30,0.578,0.849,0.546,1.042,0.737,0.351,0.601,0.567,�k��,0.8,�L
2022/04/27,06:40,0.576,0.850,0.547,1.044,0.737,0.351,0.601,0.568,���k��,7.0,�L
2022/04/27,06:50,0.579,0.849,0.548,1.044,0.739,0.352,0.602,0.569,���쐼,9.5,��
2022/04/27,07:00,0.577,0.849,0.548,1.045,0.740,0.351,0.603,0.567,��,9.4,��
2022/04/27,07:10,0.577,0.850,0.549,1.043,0.740,0.350,0.601,0.565,���쐼,9.3,��
2022/04/27,07:20,0.577,0.849,0.545,1.044,0.739,0.350,0.602,0.566,��,9.1,��
2022/04/27,07:30,0.576,0.850,0.546,1.044,0.739,0.351,0.602,0.566,��,10.2,��
2022/04/27,07:40,0.576,0.846,0.541,1.044,0.737,0.349,0.602,0.567,��,8.7,��
2022/04/27,07:50,0.577,0.849,0.545,1.043,0.736,0.349,0.602,0.568,��,12.4,��
2022/04/27,08:00,0.575,0.849,0.545,1.044,0.736,0.349,0.602,0.565,��,11.6,��
2022/04/27,08:10,0.576,0.847,0.545,1.043,0.737,0.349,0.602,0.566,��,10.6,��
2022/04/27,08:20,0.575,0.845,0.545,1.043,0.736,0.350,0.602,0.565,���k��,12.5,��
2022/04/27,08:30,0.579,0.847,0.545,1.044,0.739,0.349,0.603,0.566,���k��,11.4,��
2022/04/27,08:40,0.575,0.845,0.545,1.042,0.735,0.347,0.604,0.567,���k��,9.3,��
2022/04/27,08:50,0.576,0.849,0.545,1.043,0.737,0.348,0.605,0.566,��,11.9,��
2022/04/27,09:00,0.577,0.847,0.545,1.045,0.739,0.350,0.604,0.567,���k��,10.7,��
2022/04/27,09:10,0.575,0.847,0.546,1.044,0.735,0.350,0.603,0.565,��,9.1,��
2022/04/27,09:20,0.576,0.846,0.545,1.045,0.735,0.348,0.602,0.565,��,11.3,��
2022/04/27,09:30,0.576,0.847,0.545,1.045,0.737,0.349,0.602,0.565,��,10.5,��
2022/04/27,09:40,0.576,0.847,0.548,1.045,0.736,0.350,0.603,0.566,���k��,10.5,��
2022/04/27,09:50,0.575,0.849,0.545,1.046,0.736,0.350,0.602,0.566,��,10.5,��
2022/04/27,10:00,0.577,0.848,0.547,1.046,0.738,0.349,0.604,0.566,��,9.9,��
2022/04/27,10:10,0.578,0.851,0.547,1.044,0.737,0.350,0.605,0.567,��,7.8,��
2022/04/27,10:20,0.576,0.850,0.547,1.049,0.741,0.349,0.603,0.567,���k��,8.9,��
2022/04/27,10:30,0.579,0.852,0.548,1.046,0.739,0.349,0.604,0.568,���k��,10.8,��
2022/04/27,10:40,0.580,0.850,0.548,1.048,0.738,0.350,0.604,0.567,���k��,11.3,��
2022/04/27,10:50,0.578,0.853,0.548,1.046,0.742,0.350,0.604,0.566,���k��,7.4,��
2022/04/27,11:00,0.580,0.853,0.549,1.047,0.742,0.351,0.604,0.568,���k��,8.2,��
2022/04/27,11:10,0.580,0.854,0.551,1.048,0.742,0.350,0.605,0.568,���k��,6.6,��
2022/04/27,11:20,0.579,0.854,0.551,1.049,0.741,0.349,0.604,0.568,���k��,5.4,��
2022/04/27,11:30,0.576,0.853,0.550,1.049,0.741,0.350,0.604,0.568,���k��,8.7,��
2022/04/27,11:40,0.581,0.851,0.548,1.046,0.743,0.352,0.605,0.569,���k��,10.2,��
2022/04/27,11:50,0.581,0.855,0.551,1.050,0.743,0.352,0.605,0.569,���k��,9.6,��
2022/04/27,12:00,0.580,0.857,0.550,1.050,0.742,0.352,0.606,0.569,���k��,10.5,��
2022/04/27,12:10,0.582,0.858,0.552,1.050,0.742,0.351,0.605,0.569,���k��,9.6,��
2022/04/27,12:20,0.581,0.857,0.551,1.050,0.740,0.352,0.605,0.568,���k��,10.3,��
2022/04/27,12:30,0.583,0.857,0.553,1.052,0.744,0.352,0.608,0.570,��,4.4,��
2022/04/27,12:40,0.583,0.857,0.550,1.050,0.743,0.351,0.607,0.569,��,8.4,��
2022/04/27,12:50,0.582,0.858,0.550,1.051,0.746,0.351,0.607,0.570,��,10.3,��
2022/04/27,13:00,0.582,0.858,0.551,1.052,0.746,0.351,0.606,0.569,��,10.8,��
2022/04/27,13:10,0.582,0.858,0.553,1.051,0.746,0.353,0.604,0.570,��,11.7,��
2022/04/27,13:20,0.583,0.860,0.551,1.052,0.747,0.351,0.608,0.570,��,12.0,��
2022/04/27,13:30,0.583,0.858,0.553,1.052,0.746,0.352,0.605,0.570,��,10.3,��
2022/04/27,13:40,0.581,0.859,0.552,1.054,0.746,0.351,0.605,0.568,��,10.2,��
2022/04/27,13:50,0.583,0.859,0.551,1.052,0.748,0.352,0.605,0.570,��,9.5,��
2022/04/27,14:00,0.583,0.860,0.550,1.052,0.747,0.351,0.606,0.570,���k��,12.0,��
2022/04/27,14:10,0.582,0.860,0.552,1.054,0.748,0.352,0.606,0.568,��,11.0,��
2022/04/27,14:20,0.581,0.860,0.550,1.050,0.748,0.352,0.605,0.568,���k��,11.6,��
2022/04/27,14:30,0.583,0.858,0.553,1.053,0.746,0.351,0.605,0.570,���k��,10.6,��
2022/04/27,14:40,0.581,0.859,0.552,1.055,0.747,0.351,0.605,0.569,��,10.4,��
2022/04/27,14:50,0.582,0.862,0.552,1.054,0.746,0.350,0.603,0.569,��,11.3,��
2022/04/27,15:00,0.581,0.859,0.553,1.053,0.746,0.351,0.607,0.570,��,8.5,��
2022/04/27,15:10,0.584,0.859,0.550,1.056,0.747,0.351,0.606,0.569,���k��,9.5,��
2022/04/27,15:20,0.583,0.858,0.553,1.055,0.746,0.350,0.605,0.570,���k��,6.7,��
2022/04/27,15:30,0.583,0.861,0.551,1.055,0.748,0.351,0.606,0.569,���k��,7.2,��
2022/04/27,15:40,0.581,0.862,0.550,1.054,0.746,0.351,0.605,0.570,���k��,8.8,��
2022/04/27,15:50,0.581,0.860,0.551,1.054,0.747,0.351,0.604,0.568,��,5.6,��
2022/04/27,16:00,0.583,0.863,0.552,1.054,0.746,0.350,0.605,0.570,���k��,6.4,��
2022/04/27,16:10,0.582,0.862,0.551,1.055,0.746,0.351,0.606,0.568,���k��,6.0,��
2022/04/27,16:20,0.582,0.861,0.551,1.054,0.746,0.350,0.605,0.569,���k��,7.5,��
2022/04/27,16:30,0.581,0.862,0.551,1.055,0.746,0.351,0.606,0.569,���k��,6.5,��
2022/04/27,16:40,0.581,0.865,0.551,1.056,0.749,0.349,0.606,0.569,���k��,8.1,��
2022/04/27,16:50,0.581,0.865,0.550,1.056,0.747,0.351,0.604,0.570,���k��,9.4,��
2022/04/27,17:00,0.580,0.865,0.551,1.056,0.750,0.349,0.605,0.569,���k��,6.9,��
2022/04/27,17:10,0.582,0.864,0.549,1.057,0.747,0.349,0.605,0.568,���k��,6.7,��
2022/04/27,17:20,0.579,0.865,0.548,1.057,0.748,0.350,0.604,0.569,���k��,8.9,��
2022/04/27,17:30,0.580,0.864,0.550,1.057,0.746,0.350,0.604,0.570,���k��,9.2,��
2022/04/27,17:40,0.580,0.863,0.551,1.056,0.746,0.350,0.604,0.570,���k��,9.2,��
2022/04/27,17:50,0.581,0.863,0.551,1.056,0.747,0.350,0.604,0.571,�k��,10.2,��
2022/04/27,18:00,0.582,0.864,0.550,1.057,0.747,0.350,0.604,0.571,�k��,8.4,��
2022/04/27,18:10,0.581,0.863,0.551,1.061,0.749,0.350,0.604,0.569,�k��,9.3,��
2022/04/27,18:20,0.580,0.864,0.550,1.060,0.748,0.350,0.603,0.569,�k��,7.3,��
2022/04/27,18:30,0.581,0.864,0.550,1.061,0.746,0.349,0.604,0.569,�k��,8.4,��
2022/04/27,18:40,0.582,0.864,0.551,1.059,0.748,0.350,0.603,0.569,�k��,8.6,��
2022/04/27,18:50,0.581,0.866,0.551,1.059,0.749,0.349,0.604,0.571,�k��,8.6,��
2022/04/27,19:00,0.581,0.866,0.551,1.059,0.747,0.351,0.603,0.571,�k��,8.9,��
2022/04/27,19:10,0.583,0.865,0.549,1.059,0.747,0.349,0.603,0.572,�k��,9.0,��
2022/04/27,19:20,0.582,0.868,0.552,1.060,0.747,0.350,0.604,0.571,�k��,6.7,��
2022/04/27,19:30,0.583,0.867,0.552,1.058,0.748,0.350,0.605,0.571,�k��,4.5,��
2022/04/27,19:40,0.584,0.866,0.552,1.059,0.747,0.350,0.603,0.571,�k��,4.9,��
2022/04/27,19:50,0.582,0.865,0.555,1.058,0.748,0.352,0.603,0.570,�k��,6.0,��
2022/04/27,20:00,0.581,0.865,0.553,1.058,0.748,0.351,0.605,0.570,�k�k��,5.6,��
2022/04/27,20:10,0.583,0.867,0.551,1.059,0.749,0.350,0.604,0.570,�k�k��,4.0,��
2022/04/27,20:20,0.582,0.865,0.551,1.059,0.750,0.351,0.606,0.572,�k�k��,1.5,��
2022/04/27,20:30,0.583,0.866,0.551,1.060,0.750,0.351,0.605,0.570,�k�k��,3.7,��
2022/04/27,20:40,0.582,0.864,0.551,1.058,0.747,0.351,0.603,0.571,�k�k��,2.9,��
2022/04/27,20:50,0.582,0.865,0.552,1.057,0.751,0.349,0.606,0.571,�k��,3.7,��
2022/04/27,21:00,0.581,0.864,0.552,1.058,0.750,0.349,0.604,0.570,���k��,3.5,��
2022/04/27,21:10,0.582,0.864,0.553,1.060,0.750,0.349,0.602,0.569,���k��,6.1,��
2022/04/27,21:20,0.581,0.864,0.553,1.060,0.749,0.350,0.603,0.568,�k��,5.8,��
2022/04/27,21:30,0.581,0.864,0.553,1.060,0.749,0.350,0.603,0.568,�k��,6.5,��
2022/04/27,21:40,0.580,0.863,0.552,1.059,0.748,0.348,0.602,0.569,�k��,5.8,��
2022/04/27,21:50,0.583,0.864,0.553,1.057,0.751,0.348,0.604,0.570,�k�k��,3.0,��
2022/04/27,22:00,0.582,0.864,0.551,1.060,0.751,0.351,0.602,0.569,�k,4.4,��
2022/04/27,22:10,0.584,0.865,0.551,1.058,0.749,0.350,0.604,0.570,�k�k��,6.9,��
2022/04/27,22:20,0.582,0.864,0.551,1.060,0.751,0.351,0.603,0.571,�k�k��,5.0,��
2022/04/27,22:30,0.582,0.866,0.551,1.059,0.750,0.351,0.603,0.570,�k�k��,4.4,��
2022/04/27,22:40,0.581,0.865,0.552,1.059,0.748,0.352,0.603,0.570,�k,3.3,��
2022/04/27,22:50,0.580,0.864,0.551,1.059,0.750,0.351,0.603,0.570,�k,3.1,��
2022/04/27,23:00,0.581,0.865,0.551,1.060,0.752,0.350,0.604,0.571,�k�k��,5.3,��
2022/04/27,23:10,0.582,0.868,0.552,1.058,0.750,0.351,0.604,0.569,�k�k��,5.1,��
2022/04/27,23:20,0.580,0.864,0.552,1.059,0.749,0.349,0.605,0.569,�k�k��,7.4,��
2022/04/27,23:30,0.581,0.862,0.552,1.059,0.748,0.350,0.604,0.570,�k,6.4,��
2022/04/27,23:40,0.581,0.864,0.551,1.058,0.750,0.350,0.605,0.570,�k�k��,4.2,��
2022/04/27,23:50,0.580,0.864,0.550,1.058,0.751,0.350,0.602,0.571,�k�k��,5.9,��
